Home   Weather   Basel   Past weeks

Flag for Switzerland Past Weather in Basel, Basel-Stadt, Switzerland — Yesterday and Last 2 Weeks

Now
81 °F

Scattered clouds.


Feels Like: 82 °F
Forecast: 60 / 86 °F
Wind: 2 mph from South

Location: Bale-Mulhouse

Current Time: May 28, 2017 at 12:16:53 pm

Latest Report: May 28, 2017 at 11:00 am


Visibility: 31 mi

Pressure: 30.06 "Hg

Humidity: 49%

Dew Point: 60 °F

Location of BaselLocation

Past Weather in Basel — Graph

°F

Basel Temperature Yesterday

Maximum temperature yesterday: 88 °F (at 6:00 pm)
Minimum temperature yesterday: 52 °F (at 6:00 am)
Average temperature yesterday: 72 °F

High & Low Weather Summary for the Past Weeks

 TemperatureHumidityPressure
High88 °F (May 27, 6:00 pm)98% (May 16, 6:00 am)30.42 "Hg (May 16, 6:00 am)
Low41 °F (May 21, 6:00 am)34% (May 16, 5:00 pm)29.80 "Hg (May 18, 8:00 pm)
Average63 °F68%30.13 "Hg
* Reported May 13 11:00 am — May 28 11:00 am, Basel. Weather by CustomWeather, © 2017

Note: Actual official high and low records may vary slightly from our data, if they occured in-between our weather recording intervals... More about our weather records

Advertising

Basel Weather History for the Previous 24 Hours

Scroll right to see more
 ConditionsComfort  
Time TempWeatherWind HumidityBarometerVisibility
11:00 am
Sun, May 28
81 °FScattered clouds.2 mph49%30.06 "Hg31 mi
10:00 am77 °FPassing clouds.6 mph49%30.08 "Hg31 mi
9:00 am74 °FPassing clouds.5 mph54%30.09 "Hg31 mi
8:00 am70 °FPassing clouds.5 mph66%30.10 "Hg31 mi
7:00 am66 °FPassing clouds.5 mph73%30.09 "Hg31 mi
6:00 am64 °FMild.5 mph77%30.09 "Hg18 mi
5:00 am65 °FPassing clouds.6 mph74%30.09 "Hg19 mi
4:00 am66 °FMild.5 mph72%30.08 "Hg31 mi
3:00 am66 °FMild.6 mph72%30.08 "Hg18 mi
2:00 am68 °FMild.2 mph74%30.08 "Hg25 mi
1:00 am70 °FMild.3 mph71%30.08 "Hg22 mi
12:00 am71 °FOvercast.2 mph69%30.07 "Hg22 mi
11:00 pm
Sat, May 27
74 °FOvercast.6 mph68%30.06 "Hg22 mi
10:00 pm75 °FPassing clouds.7 mph65%30.04 "Hg31 mi
9:00 pm76 °FScattered clouds.5 mph59%30.02 "Hg31 mi
8:00 pm83 °FScattered clouds.5 mph45%30.00 "Hg22 mi
7:00 pm87 °FPassing clouds.2 mph35%29.98 "Hg22 mi
6:00 pm88 °FPassing clouds.2 mph34%29.98 "Hg22 mi
5:00 pm87 °FPassing clouds.5 mph35%29.99 "Hg22 mi
4:00 pm87 °FPassing clouds.5 mph35%30.00 "Hg31 mi
3:00 pm85 °FPassing clouds.6 mph36%30.01 "Hg31 mi
2:00 pm84 °FPassing clouds.3 mph37%30.03 "Hg31 mi
1:00 pm82 °FPassing clouds.5 mph40%30.04 "Hg31 mi
12:00 pm80 °FPassing clouds.5 mph41%30.06 "Hg31 mi
Weather by CustomWeather, © 2017

See weather overviewHow to use our weather pages